Location: *
(40.4000°N, 15.1200°E)
Time: 06:03:09
(UTC+00:00)

Cosmos 1174 - Pass Details

Date: 09 April 2020
Orbit: 371 x 1148 km, 66.1° (Epoch: 27 May)

Event Time Altitude Azimuth Distance (km) Brightness Sun altitude
Rises 19:56:47 0° 331° (NNW) 2,746 8.4 -25.7°
Reaches altitude 10° 19:58:47 10° 333° (NNW) 1,950 7.4 -26.0°
Enters shadow 20:02:44 70° 6° (N) 743 4.4 -26.6°
